Regional Weather Roundup
Issued by NWS

Home | Current Version | Previous Version | Text Only | Print | Product List | Glossary On
Versions: 1 2 3 4 5 6 7 8 9 10 11 12 13 14 15 16 17 18 19 20 21 22 23 24 25 26 27 28 29 30 31 32 33 34 35 36 37 38 39 40 41 42 43 44 45 46 47 48 49 50
000
ASUS45 KREV 020310
RWRNV
NEVADA REGIONAL WEATHER ROUNDUP
NATIONAL WEATHER SERVICE RENO NV
800 PM PDT TUE SEP 01 2015

NOTE: "FAIR" INDICATES FEW OR NO CLOUDS BELOW 12,000 FEET WITH NO
SIGNIFICANT WEATHER AND/OR OBSTRUCTIONS TO VISIBILITY.

NVZ001-003-004-020400-
WESTERN NEVADA

CITY           SKY/WX    TMP DP  RH WIND       PRES   REMARKS
RENO           PTCLDY    78  34  20 W20G26    29.93R
CARSON CITY    FAIR      75  34  22 W8        29.97R
MINDEN         FAIR      73  36  25 W15       29.97R
SLIDE MTN        N/A     54  30  40 W32         N/A
PYRAMID LAKE     N/A     84 N/A N/A SW12        N/A
FALLON         PTCLDY    82  28  14 W8        29.86R
LOVELOCK       PTCLDY    79  29  16 W6        29.86R
HAWTHORNE      CLEAR     82  41  23 NW7       29.87R
$$

NVZ002-CAZ072-073-020400-
NORTHERN AND CENTRAL SIERRA

CITY           SKY/WX    TMP DP  RH WIND       PRES   REMARKS
S. LAKE TAHOE  CLEAR     67  38  34 S7        30.11R
TRUCKEE        PTCLDY    63  36  36 W7        30.10R
SQUAW VLY 8000   N/A     54  34  47 W14         N/A
SUSANVILLE     CLEAR     75  30  19 SW10      29.96R
BLUE CANYON    PTCLDY    65  39  38 CALM      30.09R
MAMMOTH LAKES  FAIR      66  28  24 NW14G21   30.16R
BRIDGEPORT     FAIR      67  28  23 SW9       30.10R
$$

NVZ030-031-036-020400-
NORTHERN NEVADA

CITY           SKY/WX    TMP DP  RH WIND       PRES   REMARKS
ELKO           CLEAR     76  27  16 S5        29.91R
WINNEMUCCA     PTCLDY    73  24  16 W7        29.88R
WENDOVER       CLEAR     84  28  13 S13       29.85R
$$

NVZ035-037-020400-
CENTRAL NEVADA

CITY           SKY/WX    TMP DP  RH WIND       PRES   REMARKS
ELY            CLEAR     74  28  18 S12       30.08R
EUREKA           N/A     76  19  11 S13       30.00R
$$

NVZ013-014-020400-
SOUTH CENTRAL NEVADA

CITY           SKY/WX    TMP DP  RH WIND       PRES   REMARKS
TONOPAH        CLEAR     76  19  11 S13       30.03R
$$

NVZ017-020-022-020400-
SOUTHERN NEVADA

CITY           SKY/WX    TMP DP  RH WIND       PRES   REMARKS
LAS VEGAS      PTCLDY    94  50  22 SW7       29.80R
N. LAS VEGAS   PTCLDY    93  50  23 SW6       29.83R
NELLIS AFB     PTCLDY    94  54  25 SE13      29.81R
HENDERSON      MOCLDY    92  52  25 S10       29.88R
MERCURY        PTCLDY    86  45  23 SW13      29.91R
$$


USA.gov is the U.S. government's official web portal to all federal, state and local government web resources and services.